Online Auction of Plastic and Rubber Fabrication Machine Shop Equipment for Sale in Fremont, CA

Lot #0101: Proto Trak TRM 2 Axis CNC Vertical Milling Machine

Bidding is closed.
High Bid:$4,550.00
NA
Bidding Ended: Thu, Feb 14  10:03:51 am PT
High Bidder: machnet
Bid Increment: $50.00
Starting Bid: $5.00
Item Location: 4623 Enterprise Common, Fremont, CA 94538
Item has been viewed 1,620 times.

Proto Trak TRM 2 Axis CNC Vertical Milling Machine

  • Model: TRAK-TRM
  • Serial: 92-126
  • Variable Speed 2006 Trak DPM Mill
  • Low Speeds: 79-500RPM
  • High Speeds: 690-4200RPM
  • 3HP
  • 3 Phase
  • 1720 RPM
  • 2004 Proto Trak MX2 Control
  • 230 Volts
  • Table : 58” x 10”
  • Machinist Vise Included
  • Side Mounted Work Lamp
  • X = 26.70”
  • Y = 16.90”
  • Shop Footprint: 60” x 60” x 80”
Bid Date Bid Amount Bidder
Feb 14, 2019 - 10:01:51 AM $4,550.00 imachnet
Feb 14, 2019 - 10:01:51 AM $4,500.00 imbatlett43
Feb 14, 2019 - 9:49:39 AM $3,550.00 imachnet
Feb 14, 2019 - 9:49:39 AM $3,500.00 ilewismachine
Feb 14, 2019 - 9:49:27 AM $3,200.00 ilewismachine
Feb 14, 2019 - 9:49:27 AM $3,150.00 imachnet
Feb 14, 2019 - 9:48:51 AM $3,050.00 ilewismachine
Feb 14, 2019 - 9:48:51 AM $3,000.00 imachnet
Feb 14, 2019 - 8:49:32 AM $2,450.00 imachnet
Feb 14, 2019 - 8:49:32 AM $2,400.00 imbatlett43
Feb 14, 2019 - 8:48:59 AM $2,350.00 imbatlett43
Feb 14, 2019 - 8:48:59 AM $2,300.00 imachnet
Feb 14, 2019 - 8:41:46 AM $2,250.00 imbatlett43
Feb 14, 2019 - 8:41:46 AM $2,200.00 imachnet
Feb 14, 2019 - 8:32:48 AM $2,150.00 imbatlett43
Feb 14, 2019 - 8:32:48 AM $2,100.00 imachnet
Feb 14, 2019 - 8:32:37 AM $1,850.00 imbatlett43
Feb 14, 2019 - 8:32:37 AM $1,800.00 imachnet
Feb 14, 2019 - 8:32:21 AM $1,700.00 imbatlett43
Feb 14, 2019 - 8:32:21 AM $1,650.00 imachnet
Feb 14, 2019 - 8:32:04 AM $1,550.00 imbatlett43
Feb 14, 2019 - 8:32:04 AM $1,500.00 imachnet
Feb 13, 2019 - 4:17:34 PM $1,380.00 imbatlett43
Feb 13, 2019 - 4:17:34 PM $1,330.00 iManzoMachining
Feb 12, 2019 - 9:59:45 PM $1,253.45 iManzoMachining
Feb 12, 2019 - 9:59:31 PM $1,203.45 ijohnyryan81
Feb 12, 2019 - 9:59:31 PM $1,200.00 iManzoMachining
Feb 12, 2019 - 8:13:45 PM $1,010.00 ijohnyryan81
Feb 12, 2019 - 8:13:45 PM $1,000.00 icohowater
Feb 12, 2019 - 8:13:29 PM $680.00 ijohnyryan81
Feb 12, 2019 - 8:13:29 PM $670.00 icohowater
Feb 12, 2019 - 8:13:10 PM $660.00 ijohnyryan81
Feb 12, 2019 - 8:13:10 PM $650.00 icohowater
Feb 12, 2019 - 8:12:54 PM $530.00 ijohnyryan81
Feb 12, 2019 - 8:12:54 PM $520.00 icohowater
Feb 12, 2019 - 6:44:14 PM $510.00 ijohnyryan81
Feb 12, 2019 - 6:44:14 PM $500.00 iEDSincShandon
Feb 12, 2019 - 2:39:33 PM $210.00 iEDSincShandon
Feb 12, 2019 - 2:39:33 PM $200.00 ijtx1988
Feb 12, 2019 - 10:25:21 AM $5.00 iEDSincShandon
Click on any picture to see a larger image.